AKDT,Max TemperatureF,Mean TemperatureF,Min TemperatureF,Max Dew PointF,MeanDew PointF,Min DewpointF,Max Humidity, Mean Humidity, Min Humidity, Max Sea Level PressureIn, Mean Sea Level PressureIn, Min Sea Level PressureIn, Max VisibilityMiles, Mean VisibilityMiles, Min VisibilityMiles, Max Wind SpeedMPH, Mean Wind SpeedMPH, Max Gust SpeedMPH,PrecipitationIn, CloudCover, Events, WindDirDegrees
2013-9-1,73,62,51,55,50,39,82,66,42,29.87,29.63,29.37,10,10,7,41,12,52,0.00,4,,140
2013-9-2,66,58,51,48,45,41,72,60,40,29.37,29.23,29.19,10,10,10,38,28,48,0.00,3,,147
2013-9-3,60,54,48,46,44,41,82,72,52,29.40,29.22,29.12,10,9,4,24,15,33,0.01,7,,210
2013-9-4,57,50,44,43,39,36,82,65,40,29.69,29.58,29.41,10,10,5,25,17,33,0.01,8,,204
2013-9-5,59,52,46,43,41,39,87,66,44,29.81,29.76,29.70,10,10,10,22,10,25,0.02,6,,145
2013-9-6,51,48,44,46,42,37,87,75,62,29.77,29.59,29.49,10,9,5,24,12,29,0.04,7,,342
2013-9-7,51,45,39,43,40,34,87,72,51,29.74,29.70,29.65,10,10,2,16,13,22,0.00,6,,255
2013-9-8,57,48,39,45,40,32,87,69,51,29.67,29.48,29.27,10,10,7,21,8,28,0.03,6,,96
2013-9-9,54,51,48,48,46,45,88,80,62,29.51,29.34,29.24,10,7,1,12,7,,0.20,8,,205
2013-9-10,51,48,46,46,41,34,87,76,62,29.85,29.73,29.52,10,6,2,22,14,26,0.00,8,,272
2013-9-11,55,50,44,39,37,34,76,62,34,29.86,29.81,29.65,10,10,10,22,11,26,0.00,7,,175
2013-9-12,57,52,46,48,43,39,77,66,51,29.63,29.46,29.37,10,10,9,30,21,38,0.00,6,,127
2013-9-13,55,46,37,45,40,32,87,73,53,29.95,29.75,29.53,10,10,10,18,6,23,0.00,4,,18
2013-9-14,53,47,41,46,42,36,87,77,67,30.15,30.07,29.96,10,7,0,21,7,23,0.00,5,,325
2013-9-15,50,48,46,43,37,34,76,65,51,30.18,30.14,30.08,10,10,10,21,16,26,0.00,8,,285
2013-9-16,50,48,46,43,40,34,82,73,57,30.08,29.91,29.80,10,9,2,22,13,29,0.01,8,,281
2013-9-17,52,47,42,43,39,32,82,69,46,29.79,29.71,29.65,10,10,8,23,17,29,0.01,6,,302
2013-9-18,48,39,30,37,34,25,81,68,51,29.90,29.85,29.76,10,9,1,22,10,28,0.00,5,,296
2013-9-19,50,47,44,41,37,34,81,68,57,29.84,29.77,29.72,10,10,5,20,11,24,0.00,8,,302
2013-9-20,50,47,44,43,40,37,87,76,62,29.72,29.25,28.66,10,9,3,25,14,38,0.03,8,,195
2013-9-21,50,44,37,37,33,28,81,67,46,29.38,29.12,28.70,10,10,6,30,21,37,0.04,7,,327
2013-9-22,48,44,39,34,31,27,76,61,49,29.76,29.61,29.39,10,10,5,29,23,37,0.02,7,,312
2013-9-23,46,42,39,32,30,27,75,61,38,29.88,29.84,29.76,10,10,9,24,13,28,0.01,5,,320
2013-9-24,55,47,39,45,38,30,75,63,51,29.81,29.53,29.36,10,10,8,52,22,66,0.00,4,,136
2013-9-25,51,48,46,43,40,36,87,72,46,29.69,29.36,29.18,10,9,3,26,16,32,0.04,6,,181
2013-9-26,50,46,41,45,39,34,87,77,66,29.83,29.49,28.90,10,8,2,29,18,36,0.16,8,,222
2013-9-27,48,44,41,41,37,34,81,75,60,29.56,29.14,28.80,10,8,2,38,31,48,0.04,8,,297
2013-9-28,44,43,42,34,29,27,70,57,40,29.70,29.60,29.55,10,10,10,38,28,45,0.00,7,,314
2013-9-29,42,40,39,27,23,19,56,50,32,29.95,29.86,29.70,10,10,10,34,29,43,0.00,8,,318
2013-9-30,44,40,37,30,26,21,61,55,40,30.03,30.01,29.96,10,10,10,28,22,39,0.00,8,,310